FW6947 Weather Reports


time (UTC)temp
F
wind
direction
speed
knots
gust
knots
rain 1hr
in
rain 24hr
in
rain mn
in
humidity
%
barometer
mb
20260508151544 50 0 0.9 7.8 0.00 0.00 0.00 42 1024.2
20260508150048 51 0 0.0 5.2 0.00 0.00 0.00 43 1024.0
20260508144548 52 0 0.0 0.9 0.00 0.00 0.00 40 1024.1
20260508143050 51 0 0.0 4.3 0.00 0.00 0.00 43 1024.0
20260508141545 51 267 0.0 0.0 0.00 0.00 0.00 43 1024.3
20260508140041 50 0 0.0 0.0 0.00 0.00 0.00 50 1024.2
20260508134540 45 0 0.0 0.0 0.00 0.00 0.00 55 1024.0
20260508133101 40 0 0.0 0.0 0.00 0.00 0.00 66 1023.9
20260508131548 36 0 0.0 0.0 0.00 0.00 0.00 75 1023.8
20260508130047 33 0 0.0 0.0 0.00 0.00 0.00 78 1023.6
20260508124545 33 0 0.0 0.0 0.00 0.00 0.00 79 1023.4
20260508123055 33 0 0.0 0.0 0.00 0.00 0.00 78 1023.3
20260508121552 33 0 0.0 0.0 0.00 0.00 0.00 77 1023.0
20260508120050 33 0 0.0 0.0 0.00 0.00 0.00 78 1023.0
20260508114545 33 0 0.0 0.0 0.00 0.00 0.00 78 1023.0
20260508113049 33 0 0.0 0.0 0.00 0.00 0.00 79 1022.9
20260508111553 33 0 0.0 0.0 0.00 0.00 0.00 77 1023.0
20260508110051 33 0 0.0 0.0 0.00 0.00 0.00 76 1023.1
20260508104546 33 0 0.0 0.0 0.00 0.00 0.00 75 1023.1
20260508103046 33 0 0.0 0.0 0.00 0.00 0.00 75 1023.0
20260508101546 34 0 0.0 0.0 0.00 0.00 0.00 74 1022.9
20260508100048 35 0 0.0 0.0 0.00 0.00 0.00 72 1023.1
20260508094554 35 0 0.0 0.0 0.00 0.00 0.00 70 1023.1
20260508093050 36 0 0.0 0.0 0.00 0.00 0.00 69 1023.1
20260508091548 37 0 0.0 0.0 0.00 0.00 0.00 66 1023.1
20260508090044 38 0 0.0 0.0 0.00 0.00 0.00 64 1023.4
20260508084549 39 0 0.0 0.0 0.00 0.00 0.00 62 1023.4
20260508083047 40 0 0.0 0.0 0.00 0.00 0.00 63 1023.5
20260508081603 40 0 0.0 0.9 0.00 0.00 0.00 60 1023.6
20260508080044 41 0 0.0 1.7 0.00 0.00 0.00 58 1023.7
20260508074542 41 360 0.0 1.7 0.00 0.00 0.00 58 1023.6
20260508073041 40 223 0.0 2.6 0.00 0.00 0.00 59 1023.6
20260508071549 40 0 0.0 1.7 0.00 0.00 0.00 59 1023.6
20260508070053 39 0 0.0 1.7 0.00 0.00 0.00 62 1023.6
20260508064544 38 0 0.0 2.6 0.00 0.00 0.00 65 1023.4
20260508063046 39 0 0.9 3.5 0.00 0.00 0.00 64 1023.4
20260508061548 40 0 0.9 2.6 0.00 0.00 0.00 63 1023.5
20260508060047 40 0 0.0 3.5 0.00 0.00 0.00 60 1023.4
20260508054547 39 206 0.9 3.5 0.00 0.00 0.00 62 1023.5
20260508053052 38 0 0.0 3.5 0.00 0.00 0.00 64 1023.6
20260508051546 37 200 0.0 4.3 0.00 0.00 0.00 68 1023.6
20260508050047 37 0 0.0 0.0 0.00 0.00 0.00 69 1023.9
20260508044602 38 0 0.0 0.0 0.00 0.00 0.00 67 1024.2
20260508043048 38 0 0.0 0.0 0.00 0.00 0.00 67 1024.3
20260508041545 38 0 0.0 0.0 0.00 0.00 0.00 68 1024.3
20260508040043 38 0 0.0 0.0 0.00 0.00 0.00 66 1024.3
20260508034554 39 0 0.0 0.0 0.00 0.00 0.00 62 1024.2
20260508033052 40 0 0.0 0.0 0.00 0.00 0.00 60 1024.4
20260508031546 41 0 0.0 0.0 0.00 0.00 0.00 59 1024.2
20260508030054 41 0 0.0 0.0 0.00 0.00 0.00 59 1024.0
20260508024547 42 0 0.0 0.0 0.00 0.00 0.00 59 1023.9
20260508023048 43 0 0.0 0.0 0.00 0.00 0.00 56 1023.8
20260508021547 45 0 0.0 0.0 0.00 0.00 0.00 55 1023.7
20260508020050 46 0 0.0 0.0 0.00 0.00 0.00 47 1023.7
20260508014548 47 0 0.0 2.6 0.00 0.00 0.00 47 1023.7
20260508013048 48 0 0.0 7.0 0.00 0.00 0.00 46 1023.6
20260508011550 49 0 0.0 4.3 0.00 0.00 0.00 44 1023.6
20260508010048 50 292 0.0 3.5 0.00 0.00 0.00 44 1023.6
20260508004552 50 0 0.0 3.5 0.00 0.00 0.00 42 1023.6
20260508003050 51 0 0.0 3.5 0.00 0.00 0.00 42 1023.7
20260508001547 52 0 0.0 7.8 0.00 0.00 0.00 40 1023.6
20260508000047 53 0 0.0 4.3 0.00 0.00 0.00 41 1023.6
20260507234552 52 0 0.0 4.3 0.00 0.00 0.00 41 1023.7
20260507233040 53 306 0.9 3.5 0.00 0.00 0.00 38 1023.8
20260507231548 53 291 0.9 8.7 0.00 0.00 0.00 40 1023.9
20260507230055 53 225 1.7 7.8 0.00 0.00 0.00 40 1023.8
20260507224550 52 0 0.0 6.1 0.00 0.00 0.00 40 1023.9
20260507223055 52 0 0.9 6.1 0.00 0.00 0.00 43 1023.8
20260507221545 52 0 1.7 7.8 0.00 0.00 0.00 39 1023.8
20260507220040 55 352 0.9 7.0 0.00 0.00 0.00 39 1023.9
20260507214546 53 330 0.9 5.2 0.00 0.00 0.00 39 1024.0
20260507213046 51 13 0.9 6.1 0.00 0.00 0.00 38 1023.9
20260507211551 49 51 0.9 3.5 0.00 0.00 0.00 48 1024.0
20260507210047 48 360 0.9 3.5 0.00 0.00 0.00 42 1023.9
20260507204544 48 360 1.7 9.6 0.00 0.00 0.00 41 1024.5
20260507203057 50 360 0.0 3.5 0.00 0.00 0.00 46 1024.5
20260507201548 50 5 0.9 6.1 0.00 0.00 0.00 41 1024.6
20260507200051 49 25 0.9 7.8 0.00 0.00 0.00 45 1024.7
20260507194547 47 0 0.9 5.2 0.00 0.00 0.00 51 1024.5
20260507193050 47 0 0.0 3.5 0.00 0.00 0.00 50 1024.7
20260507191543 49 24 0.9 6.1 0.00 0.00 0.00 46 1024.8
20260507190048 51 166 1.7 4.3 0.00 0.00 0.00 43 1024.9
20260507184547 48 257 0.9 3.5 0.00 0.00 0.00 55 1025.1
20260507183051 48 337 0.9 4.3 0.00 0.00 0.00 47 1025.1
20260507181547 44 0 0.0 2.6 0.00 0.00 0.00 52 1025.0
20260507180046 46 0 0.0 7.0 0.00 0.00 0.00 49 1025.1
20260507174548 46 360 0.9 3.5 0.00 0.00 0.00 52 1025.0
20260507173058 47 0 0.0 7.0 0.00 0.00 0.00 48 1025.3
20260507171606 45 0 0.0 2.6 0.00 0.00 0.00 54 1024.9
20260507170055 44 331 0.9 4.3 0.00 0.00 0.00 53 1025.2
20260507164602 45 0 0.0 2.6 0.00 0.00 0.00 48 1024.9
20260507163042 42 0 0.0 2.6 0.00 0.00 0.00 57 1025.1
20260507161545 43 0 0.9 3.5 0.00 0.00 0.00 52 1025.2
20260507160048 46 51 0.0 2.6 0.00 0.00 0.00 44 1025.1
20260507154552 47 0 0.0 0.9 0.00 0.00 0.00 43 1025.0
20260507153049 47 0 0.0 0.9 0.00 0.00 0.00 46 1025.3